This is the latest recevied weather packets stored in our database for station/object KC5DAQ-22. If no packets are shown the sender has not sent any weather packets the latest 1 day(s).
| Time | Temp. | Humidity | Pressure | Rain* | Wind** | Luminosity | Snow |
|---|---|---|---|---|---|---|---|
| 1778040904 | 25° C | 90% | 1007.4 hPa | 0 mm | 1.79 m/s, 161° | 0 W/m² | - |
| 1778040843 | 25° C | 90% | 1007.5 hPa | 0 mm | 2.24 m/s, 209° | 0 W/m² | - |
| 1778040783 | 25° C | 90% | 1007.5 hPa | 0 mm | 2.24 m/s, 158° | 0 W/m² | - |
| 1778040722 | 25° C | 90% | 1007.4 hPa | 0 mm | 2.68 m/s, 190° | 0 W/m² | - |
| 1778040662 | 25° C | 90% | 1007.4 hPa | 0 mm | 2.24 m/s, 145° | 0 W/m² | - |
| 1778040603 | 25.56° C | 90% | 1007.4 hPa | 0 mm | 2.24 m/s, 171° | 0 W/m² | - |
| 1778040543 | 25.56° C | 89% | 1007.4 hPa | 0 mm | 3.13 m/s, 176° | 0 W/m² | - |
| 1778040483 | 25.56° C | 89% | 1007.4 hPa | 0 mm | 3.13 m/s, 152° | 0 W/m² | - |
| 1778040423 | 25.56° C | 89% | 1007.4 hPa | 0 mm | 3.58 m/s, 171° | 0 W/m² | - |
| 1778040363 | 25.56° C | 89% | 1007.4 hPa | 0 mm | 3.13 m/s, 144° | 0 W/m² | - |
| 1778040303 | 25.56° C | 89% | 1007.4 hPa | 0 mm | 2.68 m/s, 183° | 0 W/m² | - |
| 1778040242 | 25.56° C | 89% | 1007.4 hPa | 0 mm | 2.24 m/s, 127° | 0 W/m² | - |
| 1778040183 | 25.56° C | 89% | 1007.4 hPa | 0 mm | 2.68 m/s, 140° | 0 W/m² | - |
| 1778040124 | 25.56° C | 89% | 1007.4 hPa | 0 mm | 2.68 m/s, 213° | 0 W/m² | - |
| 1778040062 | 25.56° C | 89% | 1007.3 hPa | 0 mm | 2.68 m/s, 221° | 0 W/m² | - |
| 1778040002 | 25.56° C | 89% | 1007.4 hPa | 0 mm | 3.58 m/s, 189° | 0 W/m² | - |
| 1778039944 | 25.56° C | 89% | 1007.4 hPa | 0 mm | 3.58 m/s, 135° | 0 W/m² | - |
| 1778039883 | 25.56° C | 89% | 1007.4 hPa | 0 mm | 3.13 m/s, 152° | 0 W/m² | - |
| 1778039821 | 25.56° C | 89% | 1007.3 hPa | 0 mm | 2.68 m/s, 178° | 0 W/m² | - |
| 1778039762 | 25.56° C | 89% | 1007.4 hPa | 0 mm | 3.58 m/s, 147° | 0 W/m² | - |
| 1778039704 | 25.56° C | 89% | 1007.4 hPa | 0 mm | 3.13 m/s, 149° | 0 W/m² | - |
| 1778039643 | 25.56° C | 89% | 1007.4 hPa | 0 mm | 2.68 m/s, 154° | 0 W/m² | - |
| 1778039583 | 25.56° C | 89% | 1007.4 hPa | 0 mm | 2.68 m/s, 155° | 0 W/m² | - |
| 1778039523 | 25.56° C | 89% | 1007.5 hPa | 0 mm | 2.24 m/s, 152° | 0 W/m² | - |
| 1778039463 | 25.56° C | 89% | 1007.5 hPa | 0 mm | 2.68 m/s, 147° | 0 W/m² | - |
* Rain latest hour (hover to see other rain measurements)
** Current wind speed in m/s (hover to see current wind gust speed)